www.pogodaiklimat.ru

Погода и климат >> Архив погоды >> Узбекистан >> Айякагитма


ПОГОДА в Айякагитме

  • Прогноз погоды в Айякагитме
  • Монитор погоды в Айякагитме

АРХИВ ПОГОДЫ в Айякагитме

Время (UTC), дата Ветер
(напр.,м/с)
 
Видим.   Явления Облачность Т
(С)
Тd
(С)
f
(%)
Тe
(С)
Тes
(С)
Комфортность P
(гПа)
Po
(гПа)
Тmin
(С)
Tmax
(С)
R
(мм)
R24
(мм)
S
(см)
03 10.06 СЗ 4 20 км ясно +21.6 +6.2 37 +22 +26 комфорт 1015.8 990.5 +16.3
06 10.06 С 4 20 км 6/6 1000 м
[Cu med, cong]
+25.6 +6.1 29 +25 +30 комфорт 1016.2 991.2 +16.3
09 10.06 С 4 20 км 8/8 1000 м
[Cu med, cong]
+27.2 +3.4 22 +26 +28 жарко 1015.8 990.9
12 10.06 С 5 20 км 9/9 1000 м
[Cu med, cong]
+27.4 +1.5 19 +26 +26 жарко 1015.4 990.5
15 10.06 С 6 20 км 8/8 1000 м
[Sc]
+26.5 +0.6 18 +25 +25 комфорт 1015.7 990.7 +27.4
18 10.06 С 4 20 км 4/4 600 м
[Sc diur, vesp]
+22.4 +4.8 32 +23 +23 комфорт 1017.5 992.3 +27.4
21 10.06 СЗ 2 20 км ясно +16.5 +5.5 48 +17 +17 1017.8 992.0
00 11.06 СЗ 2 20 км ясно +16.2 +4.8 47 +16 +16 1017.4 991.6
03 11.06 С 3 20 км ясно +20.0 +5.5 39 +21 +25 комфорт 1017.9 992.4 +15.5
06 11.06 СЗ 5 20 км ясно +25.6 +5.5 28 +25 +34 комфорт 1017.2 992.2 +15.5
09 11.06 С 4 20 км ясно +28.4 +3.6 20 +27 +39 жарко 1016.0 991.2
12 11.06 СВ 4 20 км ясно +29.8 +3.4 19 +28 +32 жарко 1014.5 989.9
15 11.06 СВ 4 20 км ясно +28.8 +1.5 17 +27 +27 жарко 1014.3 988.6 +29.8
18 11.06 СВ 2 20 км ясно +21.4 +3.4 31 +22 +22 комфорт 1015.4 990.0 +29.8
21 11.06 СЗ 1 20 км ясно +18.0 +1.5 33 +19 +19 1015.1 989.4
00 12.06 СЗ 2 20 км ясно +18.0 -0.7 28 +19 +19 1014.5 988.8
03 12.06 С 3 20 км ясно +23.0 +0.6 23 +22 +27 комфорт 1015.0 989.8 +16.0
06 12.06 Ю 4 20 км ясно +29.8 +1.5 16 +27 +39 жарко 1013.8 989.2 +16.0
09 12.06 СВ 3 20 км ясно +32.4 +2.1 15 +30 +45 жарко 1012.2 987.7
12 12.06 СВ 5 20 км ясно +33.2 +1.5 13 +30 +34 жарко 1010.6 986.2
21 12.06 СЗ 3 20 км ясно +20.6 +0.6 26 +21 +21 комфорт 1010.5 985.1
00 13.06 СЗ 3 20 км ясно +18.8 +1.9 32 +19 +19 1009.9 984.5
03 13.06 СЗ 2 20 км ясно +24.8 +2.7 24 +24 +29 комфорт 1010.0 985.1 +17.5
06 13.06 СВ 4 20 км ясно +32.4 +2.1 15 +30 +41 жарко 1008.9 984.5 +17.5
09 13.06 ЮВ 5 20 км 3/3 600 м
[Cu hum]
+35.0 +1.5 12 +32 +39 жарко 1006.3 982.4
12 13.06 СВ 4 20 км 3/3 600 м
[Cu hum]
+35.1 -1.9 9 +31 +34 жарко 1004.8 980.9
15 13.06 В 4 20 км ясно +33.6 +0.9 13 +30 +30 жарко 1004.4 980.4 +35.1
18 13.06 ЮВ 3 20 км ясно +25.2 +2.5 23 +24 +24 комфорт 1005.2 980.5 +35.1
21 13.06 С 2 20 км 3/0
[Ci fib]
+24.0 +20.4 80 +30 +30 очень
душно
1004.7 979.9
00 14.06 С 2 20 км ясно +19.9 +2.5 31 +21 +21 комфорт 1005.0 979.9
03 14.06 штиль 0 20 км ясно +29.0 +3.4 19 +27 +34 жарко 1004.6 980.2 +19.9
06 14.06 Ю 2 20 км ясно +34.4 +2.1 13 +31 +49 жарко 1004.5 980.5 +19.9
09 14.06 З 3 20 км 8/8 1000 м
[Cu med, cong]
+37.8 -1.2 9 +34 +37 очень
жарко
1002.9 979.2
12 14.06 З 5 20 км 9/9 600 м
[Cb cap]
+37.2 +2.7 12 +34 +34 очень
жарко
1002.6 978.8
15 14.06 З 5 20 км 6/6 600 м
[Sc]
+35.2 -1.2 10 +31 +31 жарко 1002.5 978.6 +37.8
18 14.06 З 4 20 км 6/0
[Ac As]
+31.4 -0.5 13 +28 +28 жарко 1003.1 978.9 +37.8
21 14.06 СЗ 3 20 км 9/0
[Ac As Ci fib]
+27.2 +1.1 18 +25 +25 комфорт 1003.5 978.9
00 15.06 СЗ 8 20 км 10/10 600 м
[Cb cap]
+27.5 +4.0 22 +26 +26 жарко 1007.2 982.5
03 15.06 ЮВ 6 20 км 3/3 600 м
[Cb cap]
+28.8 +7.0 25 +28 +29 жарко 1005.4 981.0 +23.4
06 15.06 СЗ 6 20 км ясно +33.6 +4.1 16 +31 +38 жарко 1005.8 981.8 +23.4
09 15.06 З 5 20 км ясно +35.6 +0.6 11 +32 +42 жарко 1005.3 981.4
12 15.06 З 7 20 км ясно +35.2 +0.9 11 +32 +34 жарко 1004.6 980.7
15 15.06 СЗ 5 20 км ясно +32.2 -1.9 11 +29 +29 жарко 1005.8 981.7 +35.6
18 15.06 СЗ 2 20 км ясно +24.0 0.0 20 +23 +23 комфорт 1007.9 982.9 +35.6
21 15.06 СЗ 2 20 км ясно +20.3 -2.5 21 +21 +21 комфорт 1008.4 983.0
03 16.06 С 1 20 км ясно +26.2 -1.7 16 +24 +30 комфорт 1008.7 983.9 +17.8

 

Местоположение метеостанции Айякагитма (Узбекистан): широта 40.68 долгота 64.48 высота над уровнем моря 219 м.

В архиве по умолчанию представлена погода в Айякагитме за последнюю неделю. Архивные данные за месяц целиком и за предыдущие месяцы, начиная с января 2011 года, Вы можете получить, выбрав интересующий диапазон дат из раскрывающегося списка и нажав кнопку "Ввод!".


*Определитесь, кто Вы:
робот инопланетянин человек

Внимание! Время в таблицах - всемирное. Для получения местного времени необходимо прибавить поправку, которая равна 5 ч.

Смотрите также архив погоды в соседних городах и на ближайших метеорологических станциях:

Погода в Машикудуке (Навоийская область, Узбекистан) (79 км)
Погода в Навои (Навоийская область, Узбекистан) (96 км)
Погода в Джангельды (Бухарская область, Узбекистан) (99 км)
Погода в Нурате (Навоийская область, Узбекистан) (102 км)
Погода в Зарафшане (Навоийская область, Узбекистан) (103 км)
Погода в Бухаре (Бухарская область, Узбекистан) (107 км)
Погода в Тамдыбулаке (Навоийская область, Узбекистан) (117 км)
Погода в Каракуле (Бухарская область, Узбекистан) (142 км)
Погода в Учкудуке (Навоийская область, Узбекистан) (171 км)
Погода на Каттакурган вдхр (Самаркандская область, Узбекистан) (183 км)

Пояснения к столбцам:

Ветер - указаны скорость ветра в м/с - средняя за 10 мин, порывы в срок и между сроками (в фигурных скобках) и направление, откуда дует ветер: С - северный, СВ - северо-восточный, В - восточный, ЮВ - юго-восточный, Ю - южный, ЮЗ - юго-западный, З - западный, СЗ - северо-западный.
Видимость - горизонтальная дальность видимости в метрах или километрах. При видимости от 1 до 10 км при отсутствии осадков обычно наблюдается дымка, при ухудшении видимости до 1 км и менее - туман. В сухую погоду видимость может ухудшаться дымом, пылью или мглою.
Явления - указаны атмосферные явления, наблюдавшиеся в срок или в последний час перед сроком; фигурными скобками обозначены явления, наблюдавшиеся между сроками (за 1-3 часа до срока); квадратными скобками обозначены град или гололедные отложения с указанием их диаметра в мм.
Облачность - указаны через наклонную черту общая и нижняя облачность в баллах и высота нижней границы облаков в метрах; квадратными скобками обозначены формы облаков: Ci - перистые, Cs - перисто-слоистые, Cc - перисто-кучевые, Ac - высококучевые, As - высокослоистые, Sc - слоисто-кучевые, Ns - слоисто-дождевые, Cu - кучевые, Cb - кучево-дождевые. Подробнее классификацию облаков см. в Атласе облаков (PDF).
T - Температура воздуха - температура, измеренная на высоте 2 м над землей.
Td - Температура точки росы - температура, при понижении до которой содержащийся в воздухе водяной пар достигнет насыщения.
f - Относительная влажность воздуха - влажноcть воздуха, измеренная на высоте 2 м над землей.
Te - Эффективная температура - температура, которую ощущает одетый по сезону человек в тени. Характеристика душности погоды. При расчете учитывается влияние влажности воздуха и скорости ветра на теплоощущения человека.
Tes - Эффективная температура на солнце - температура, которую ощущает человек, с поправкой на солнечный нагрев. Характеристика знойности погоды. Зависит от высоты солнца над горизонтом, облачности и скорости ветра. Ночью, в пасмурную погоду, а также при ветре 12 м/с и более поправка равна нулю.
P - Атмосферное давление - приведенное к уровню моря атмосферное давление.
Po - Атмосферное давление - измеренное на уровне метеостанции атмосферное давление.
Tmin - Минимальная температура - минимум температуры воздуха на высоте 2 м над землей.
Tmax - Максимальная температура - максимум температуры воздуха на высоте 2 м над землей.
R - Количество осадков - Количество выпавших осадков за период времени, мм. При наведении курсора мыши на число - период времени, за который выпало указанное количество осадков.
R24 - Количество осадков - Количество выпавших осадков за 24 часа, мм.
S - Снежный покров - Высота снежного покрова, см. При наведении курсора мыши на число - состояние снежного покрова и степень покрытия местности в баллах.